Time,TemperatureF,DewpointF,PressureIn,WindDirection,WindDirectionDegrees,WindSpeedMPH,WindSpeedGustMPH,Humidity,HourlyPrecipIn,Conditions,Clouds,dailyrainin,SoftwareType,DateUTC
2013-03-09 00:01:00,47.0,42.0,30.05,WNW,285,0.0,4.0,84,-99.99,,,-99.99,,2013-03-09 08:01:00,
2013-03-09 00:11:00,47.0,42.0,30.05,WNW,285,0.0,4.0,84,-99.99,,,-99.99,,2013-03-09 08:11:00,
2013-03-09 00:21:00,47.0,42.0,30.05,West,262,1.0,5.0,84,-99.99,,,-99.99,,2013-03-09 08:21:00,
2013-03-09 00:31:00,47.0,42.0,30.06,SSW,209,0.0,6.0,84,-99.99,,,-99.99,,2013-03-09 08:31:00,
2013-03-09 00:41:00,47.0,42.0,30.06,SSW,209,0.0,6.0,84,-99.99,,,-99.99,,2013-03-09 08:41:00,
2013-03-09 00:52:00,47.0,42.0,30.06,West,259,1.0,7.0,83,-99.99,,,-99.99,,2013-03-09 08:52:00,
2013-03-09 01:01:00,47.0,42.0,30.07,WSW,256,4.0,4.0,83,-99.99,,,-99.99,,2013-03-09 09:01:00,
2013-03-09 01:11:00,47.0,42.0,30.07,WSW,256,4.0,4.0,83,-99.99,,,-99.99,,2013-03-09 09:11:00,
2013-03-09 01:21:00,47.0,42.0,30.08,WSW,247,3.0,5.0,83,-99.99,,,-99.99,,2013-03-09 09:21:00,
2013-03-09 01:31:00,47.0,41.0,30.09,West,264,2.0,6.0,81,-99.99,,,-99.99,,2013-03-09 09:31:00,
2013-03-09 01:41:00,47.0,41.0,30.09,West,264,2.0,6.0,81,-99.99,,,-99.99,,2013-03-09 09:41:00,
2013-03-09 01:52:00,47.0,42.0,30.09,West,272,2.0,5.0,82,-99.99,,,-99.99,,2013-03-09 09:52:00,
2013-03-09 02:01:00,47.0,41.0,30.09,West,271,3.0,5.0,81,-99.99,,,-99.99,,2013-03-09 10:01:00,
2013-03-09 02:11:00,47.0,41.0,30.09,West,271,3.0,5.0,81,-99.99,,,-99.99,,2013-03-09 10:11:00,
2013-03-09 02:21:00,47.0,41.0,30.09,West,276,1.0,3.0,81,-99.99,,,-99.99,,2013-03-09 10:21:00,
2013-03-09 02:31:00,46.0,41.0,30.09,WNW,285,1.0,2.0,83,-99.99,,,-99.99,,2013-03-09 10:31:00,
2013-03-09 02:41:00,46.0,41.0,30.09,WNW,285,1.0,2.0,83,-99.99,,,-99.99,,2013-03-09 10:41:00,
2013-03-09 02:51:00,46.0,41.0,30.09,WNW,284,0.0,0.0,83,-99.99,,,-99.99,,2013-03-09 10:51:00,
2013-03-09 03:01:00,46.0,41.0,30.09,WNW,284,0.0,0.0,84,-99.99,,,-99.99,,2013-03-09 11:01:00,
2013-03-09 03:11:00,46.0,41.0,30.09,WNW,284,0.0,0.0,84,-99.99,,,-99.99,,2013-03-09 11:11:00,
2013-03-09 03:21:00,46.0,41.0,30.09,WNW,284,1.0,1.0,84,-99.99,,,-99.99,,2013-03-09 11:21:00,
2013-03-09 03:31:00,46.0,42.0,30.09,SE,138,0.0,1.0,86,-99.99,,,-99.99,,2013-03-09 11:31:00,
2013-03-09 03:41:00,46.0,42.0,30.09,SE,138,0.0,1.0,86,-99.99,,,-99.99,,2013-03-09 11:41:00,
2013-03-09 03:52:00,46.0,42.0,30.09,SSE,155,0.0,2.0,86,-99.99,,,-99.99,,2013-03-09 11:52:00,
2013-03-09 04:01:00,45.0,41.0,30.11,SSE,154,0.0,2.0,87,-99.99,,,-99.99,,2013-03-09 12:01:00,
2013-03-09 04:11:00,45.0,41.0,30.11,SSE,154,0.0,2.0,87,-99.99,,,-99.99,,2013-03-09 12:11:00,
2013-03-09 04:21:00,45.0,42.0,30.11,SSE,155,0.0,1.0,88,-99.99,,,-99.99,,2013-03-09 12:21:00,
2013-03-09 04:31:00,45.0,42.0,30.12,SSW,197,0.0,1.0,88,-99.99,,,-99.99,,2013-03-09 12:31:00,
2013-03-09 04:42:00,45.0,42.0,30.12,SSW,197,0.0,1.0,88,-99.99,,,-99.99,,2013-03-09 12:42:00,
2013-03-09 04:52:00,45.0,42.0,30.13,East,86,0.0,2.0,88,-99.99,,,-99.99,,2013-03-09 12:52:00,
2013-03-09 05:02:00,45.0,41.0,30.14,SSE,167,0.0,0.0,87,-99.99,,,-99.99,,2013-03-09 13:02:00,
2013-03-09 05:11:00,45.0,41.0,30.14,SSE,167,0.0,0.0,87,-99.99,,,-99.99,,2013-03-09 13:11:00,
2013-03-09 05:21:00,46.0,42.0,30.16,NNW,336,0.0,3.0,87,-99.99,,,-99.99,,2013-03-09 13:21:00,
2013-03-09 05:31:00,46.0,42.0,30.16,WNW,288,1.0,3.0,87,-99.99,,,-99.99,,2013-03-09 13:31:00,
2013-03-09 05:41:00,46.0,42.0,30.16,WNW,288,1.0,3.0,87,-99.99,,,-99.99,,2013-03-09 13:41:00,
2013-03-09 05:52:00,46.0,42.0,30.17,WSW,256,0.0,3.0,85,-99.99,,,-99.99,,2013-03-09 13:52:00,
2013-03-09 06:01:00,46.0,42.0,30.18,WSW,254,0.0,2.0,85,-99.99,,,-99.99,,2013-03-09 14:01:00,
2013-03-09 06:11:00,46.0,42.0,30.18,WSW,254,0.0,2.0,85,-99.99,,,-99.99,,2013-03-09 14:11:00,
2013-03-09 06:21:00,45.0,41.0,30.19,WSW,255,0.0,0.0,85,-99.99,,,-99.99,,2013-03-09 14:21:00,
2013-03-09 06:31:00,45.0,41.0,30.19,WSW,257,0.0,1.0,87,-99.99,,,-99.99,,2013-03-09 14:31:00,
2013-03-09 06:41:00,45.0,41.0,30.19,WSW,257,0.0,1.0,87,-99.99,,,-99.99,,2013-03-09 14:41:00,
2013-03-09 06:52:00,45.0,41.0,30.20,WSW,255,0.0,1.0,87,-99.99,,,-99.99,,2013-03-09 14:52:00,
2013-03-09 07:01:00,45.0,42.0,30.21,WSW,257,1.0,2.0,88,-99.99,,,-99.99,,2013-03-09 15:01:00,
2013-03-09 07:11:00,45.0,42.0,30.21,WSW,257,1.0,2.0,88,-99.99,,,-99.99,,2013-03-09 15:11:00,
2013-03-09 07:21:00,46.0,43.0,30.21,WSW,255,1.0,2.0,88,-99.99,,,-99.99,,2013-03-09 15:21:00,
2013-03-09 07:31:00,46.0,43.0,30.22,West,260,0.0,2.0,89,-99.99,,,-99.99,,2013-03-09 15:31:00,
2013-03-09 07:42:00,46.0,43.0,30.22,West,260,0.0,2.0,89,-99.99,,,-99.99,,2013-03-09 15:42:00,
2013-03-09 07:52:00,46.0,43.0,30.22,North,10,1.0,3.0,89,-99.99,,,-99.99,,2013-03-09 15:52:00,
2013-03-09 08:01:00,47.0,43.0,30.22,WNW,286,2.0,4.0,86,-99.99,,,-99.99,,2013-03-09 16:01:00,
2013-03-09 08:11:00,47.0,43.0,30.22,WNW,286,2.0,4.0,86,-99.99,,,-99.99,,2013-03-09 16:11:00,
2013-03-09 08:21:00,48.0,42.0,30.24,WNW,282,3.0,6.0,81,-99.99,,,-99.99,,2013-03-09 16:21:00,
2013-03-09 08:31:00,48.0,43.0,30.24,North,354,3.0,6.0,82,-99.99,,,-99.99,,2013-03-09 16:31:00,
2013-03-09 08:41:00,48.0,43.0,30.24,North,354,3.0,6.0,82,-99.99,,,-99.99,,2013-03-09 16:41:00,
2013-03-09 08:52:00,49.0,43.0,30.24,WNW,282,2.0,6.0,81,-99.99,,,-99.99,,2013-03-09 16:52:00,
2013-03-09 09:01:00,49.0,43.0,30.25,NE,34,1.0,6.0,80,-99.99,,,-99.99,,2013-03-09 17:01:00,
2013-03-09 09:11:00,49.0,43.0,30.25,NE,34,1.0,6.0,80,-99.99,,,-99.99,,2013-03-09 17:11:00,
2013-03-09 09:22:00,50.0,44.0,30.26,North,357,2.0,4.0,80,-99.99,,,-99.99,,2013-03-09 17:22:00,
2013-03-09 09:31:00,50.0,44.0,30.26,NW,325,2.0,4.0,79,-99.99,,,-99.99,,2013-03-09 17:31:00,
2013-03-09 09:42:00,50.0,44.0,30.26,NW,325,2.0,4.0,79,-99.99,,,-99.99,,2013-03-09 17:42:00,
2013-03-09 09:52:00,51.0,43.0,30.27,North,0,4.0,4.0,75,-99.99,,,-99.99,,2013-03-09 17:52:00,
2013-03-09 10:01:00,51.0,43.0,30.27,NE,36,2.0,3.0,75,-99.99,,,-99.99,,2013-03-09 18:01:00,
2013-03-09 10:11:00,51.0,43.0,30.27,NE,36,2.0,3.0,75,-99.99,,,-99.99,,2013-03-09 18:11:00,
2013-03-09 10:21:00,52.0,43.0,30.27,NW,313,2.0,5.0,71,-99.99,,,-99.99,,2013-03-09 18:21:00,
2013-03-09 10:31:00,52.0,43.0,30.27,North,356,2.0,4.0,70,-99.99,,,-99.99,,2013-03-09 18:31:00,
2013-03-09 10:42:00,52.0,43.0,30.27,North,356,2.0,4.0,70,-99.99,,,-99.99,,2013-03-09 18:42:00,
2013-03-09 10:52:00,54.0,44.0,30.27,NNW,338,2.0,4.0,68,-99.99,,,-99.99,,2013-03-09 18:52:00,
2013-03-09 11:01:00,55.0,44.0,30.27,NNE,20,4.0,5.0,67,-99.99,,,-99.99,,2013-03-09 19:01:00,
2013-03-09 11:11:00,55.0,44.0,30.27,NNE,20,4.0,5.0,67,-99.99,,,-99.99,,2013-03-09 19:11:00,
2013-03-09 11:21:00,55.0,45.0,30.28,WNW,299,2.0,5.0,68,-99.99,,,-99.99,,2013-03-09 19:21:00,
2013-03-09 11:31:00,57.0,44.0,30.28,WSW,248,3.0,7.0,61,-99.99,,,-99.99,,2013-03-09 19:31:00,
2013-03-09 11:41:00,57.0,44.0,30.28,WSW,248,3.0,7.0,61,-99.99,,,-99.99,,2013-03-09 19:41:00,
2013-03-09 11:52:00,59.0,45.0,30.29,North,8,0.0,7.0,59,-99.99,,,-99.99,,2013-03-09 19:52:00,
2013-03-09 12:01:00,59.0,44.0,30.29,North,351,3.0,5.0,58,-99.99,,,-99.99,,2013-03-09 20:01:00,
2013-03-09 12:11:00,59.0,44.0,30.29,North,351,3.0,5.0,58,-99.99,,,-99.99,,2013-03-09 20:11:00,
2013-03-09 12:21:00,60.0,42.0,30.29,North,349,3.0,6.0,51,-99.99,,,-99.99,,2013-03-09 20:21:00,
2013-03-09 12:31:00,61.0,42.0,30.28,NW,307,3.0,6.0,49,-99.99,,,-99.99,,2013-03-09 20:31:00,
2013-03-09 12:52:00,61.0,43.0,30.29,West,269,5.0,7.0,52,-99.99,,,-99.99,,2013-03-09 20:52:00,
2013-03-09 13:01:00,61.0,45.0,30.29,WSW,249,5.0,8.0,55,-99.99,,,-99.99,,2013-03-09 21:01:00,
2013-03-09 13:11:00,61.0,45.0,30.29,WSW,249,5.0,8.0,55,-99.99,,,-99.99,,2013-03-09 21:11:00,
2013-03-09 13:21:00,60.0,45.0,30.28,NNW,346,1.0,8.0,58,-99.99,,,-99.99,,2013-03-09 21:21:00,
2013-03-09 13:31:00,60.0,45.0,30.28,NW,311,3.0,9.0,57,-99.99,,,-99.99,,2013-03-09 21:31:00,
2013-03-09 13:41:00,60.0,45.0,30.28,NW,311,3.0,9.0,57,-99.99,,,-99.99,,2013-03-09 21:41:00,
2013-03-09 13:52:00,58.0,45.0,30.27,NW,305,6.0,10.0,61,-99.99,,,-99.99,,2013-03-09 21:52:00,
2013-03-09 14:01:00,57.0,45.0,30.27,West,264,7.0,11.0,64,-99.99,,,-99.99,,2013-03-09 22:01:00,
2013-03-09 14:11:00,57.0,45.0,30.27,West,264,7.0,11.0,64,-99.99,,,-99.99,,2013-03-09 22:11:00,
2013-03-09 14:21:00,57.0,47.0,30.26,West,279,6.0,12.0,69,-99.99,,,-99.99,,2013-03-09 22:21:00,
2013-03-09 14:32:00,57.0,47.0,30.26,NW,326,2.0,8.0,69,-99.99,,,-99.99,,2013-03-09 22:32:00,
2013-03-09 14:41:00,57.0,47.0,30.26,NW,326,2.0,8.0,69,-99.99,,,-99.99,,2013-03-09 22:41:00,
2013-03-09 14:52:00,59.0,48.0,30.26,NW,314,4.0,7.0,66,-99.99,,,-99.99,,2013-03-09 22:52:00,
2013-03-09 15:01:00,60.0,47.0,30.26,NW,310,5.0,6.0,61,-99.99,,,-99.99,,2013-03-09 23:01:00,
2013-03-09 15:11:00,60.0,47.0,30.26,NW,310,5.0,6.0,61,-99.99,,,-99.99,,2013-03-09 23:11:00,
2013-03-09 15:21:00,61.0,47.0,30.27,WNW,295,3.0,10.0,59,-99.99,,,-99.99,,2013-03-09 23:21:00,
2013-03-09 15:31:00,62.0,45.0,30.27,West,275,3.0,10.0,54,-99.99,,,-99.99,,2013-03-09 23:31:00,
2013-03-09 15:41:00,62.0,45.0,30.27,West,275,3.0,10.0,54,-99.99,,,-99.99,,2013-03-09 23:41:00,
2013-03-09 15:52:00,61.0,44.0,30.26,SW,232,3.0,10.0,54,-99.99,,,-99.99,,2013-03-09 23:52:00,
2013-03-09 16:01:00,61.0,44.0,30.26,West,272,4.0,8.0,53,-99.99,,,-99.99,,2013-03-10 00:01:00,
2013-03-09 16:11:00,61.0,44.0,30.26,West,272,4.0,8.0,53,-99.99,,,-99.99,,2013-03-10 00:11:00,
2013-03-09 16:21:00,59.0,46.0,30.26,West,272,7.0,13.0,62,-99.99,,,-99.99,,2013-03-10 00:21:00,
2013-03-09 16:31:00,58.0,46.0,30.26,West,276,6.0,9.0,65,-99.99,,,-99.99,,2013-03-10 00:31:00,
2013-03-09 16:42:00,58.0,46.0,30.26,West,276,6.0,9.0,65,-99.99,,,-99.99,,2013-03-10 00:42:00,
2013-03-09 16:52:00,60.0,46.0,30.25,WSW,252,5.0,11.0,59,-99.99,,,-99.99,,2013-03-10 00:52:00,
2013-03-09 17:01:00,61.0,45.0,30.26,NW,311,3.0,7.0,55,-99.99,,,-99.99,,2013-03-10 01:01:00,
2013-03-09 17:11:00,61.0,45.0,30.26,NW,311,3.0,7.0,55,-99.99,,,-99.99,,2013-03-10 01:11:00,
2013-03-09 17:21:00,61.0,46.0,30.26,WSW,250,8.0,9.0,57,-99.99,,,-99.99,,2013-03-10 01:21:00,
2013-03-09 17:31:00,59.0,45.0,30.25,West,264,4.0,8.0,60,-99.99,,,-99.99,,2013-03-10 01:31:00,
2013-03-09 17:41:00,59.0,45.0,30.25,West,264,4.0,8.0,60,-99.99,,,-99.99,,2013-03-10 01:41:00,
2013-03-09 17:51:00,59.0,45.0,30.26,WSW,248,3.0,7.0,59,-99.99,,,-99.99,,2013-03-10 01:51:00,
2013-03-09 18:01:00,59.0,44.0,30.26,WSW,255,1.0,7.0,58,-99.99,,,-99.99,,2013-03-10 02:01:00,
2013-03-09 18:11:00,59.0,44.0,30.26,WSW,255,1.0,7.0,58,-99.99,,,-99.99,,2013-03-10 02:11:00,
2013-03-09 18:22:00,59.0,46.0,30.26,West,266,3.0,5.0,63,-99.99,,,-99.99,,2013-03-10 02:22:00,
2013-03-09 18:31:00,58.0,44.0,30.26,NNW,336,1.0,4.0,59,-99.99,,,-99.99,,2013-03-10 02:31:00,
2013-03-09 18:41:00,58.0,44.0,30.26,NNW,336,1.0,4.0,59,-99.99,,,-99.99,,2013-03-10 02:41:00,
2013-03-09 18:52:00,58.0,44.0,30.27,WSW,257,4.0,4.0,59,-99.99,,,-99.99,,2013-03-10 02:52:00,
2013-03-09 19:01:00,54.0,46.0,30.27,West,263,9.0,12.0,73,-99.99,,,-99.99,,2013-03-10 03:01:00,
2013-03-09 19:11:00,54.0,46.0,30.27,West,263,9.0,12.0,73,-99.99,,,-99.99,,2013-03-10 03:11:00,
2013-03-09 19:21:00,53.0,46.0,30.28,WSW,251,5.0,10.0,77,-99.99,,,-99.99,,2013-03-10 03:21:00,
2013-03-09 19:31:00,55.0,45.0,30.27,West,272,1.0,8.0,69,-99.99,,,-99.99,,2013-03-10 03:31:00,
2013-03-09 19:41:00,55.0,45.0,30.27,West,272,1.0,8.0,69,-99.99,,,-99.99,,2013-03-10 03:41:00,
2013-03-09 19:52:00,55.0,44.0,30.28,WSW,244,2.0,7.0,67,-99.99,,,-99.99,,2013-03-10 03:52:00,
2013-03-09 20:01:00,54.0,45.0,30.28,SSW,205,0.0,3.0,71,-99.99,,,-99.99,,2013-03-10 04:01:00,
2013-03-09 20:11:00,54.0,45.0,30.28,SSW,205,0.0,3.0,71,-99.99,,,-99.99,,2013-03-10 04:11:00,
2013-03-09 20:21:00,54.0,46.0,30.28,South,176,1.0,3.0,73,-99.99,,,-99.99,,2013-03-10 04:21:00,
2013-03-09 20:31:00,54.0,45.0,30.29,WNW,303,3.0,5.0,71,-99.99,,,-99.99,,2013-03-10 04:31:00,
2013-03-09 20:41:00,54.0,45.0,30.29,WNW,303,3.0,5.0,71,-99.99,,,-99.99,,2013-03-10 04:41:00,
2013-03-09 20:51:00,54.0,46.0,30.29,WSW,253,0.0,2.0,73,-99.99,,,-99.99,,2013-03-10 04:51:00,
2013-03-09 21:01:00,53.0,45.0,30.29,West,270,1.0,3.0,74,-99.99,,,-99.99,,2013-03-10 05:01:00,
2013-03-09 21:11:00,53.0,45.0,30.29,West,270,1.0,3.0,74,-99.99,,,-99.99,,2013-03-10 05:11:00,
2013-03-09 21:21:00,53.0,45.0,30.29,SSE,164,0.0,3.0,74,-99.99,,,-99.99,,2013-03-10 05:21:00,
2013-03-09 21:31:00,52.0,44.0,30.30,SSE,162,0.0,0.0,74,-99.99,,,-99.99,,2013-03-10 05:31:00,
2013-03-09 21:42:00,52.0,44.0,30.30,SSE,160,0.0,1.0,74,-99.99,,,-99.99,,2013-03-10 05:42:00,
2013-03-09 21:52:00,52.0,44.0,30.30,SSE,160,0.0,1.0,74,-99.99,,,-99.99,,2013-03-10 05:52:00,
2013-03-09 22:01:00,52.0,44.0,30.31,South,176,0.0,1.0,73,-99.99,,,-99.99,,2013-03-10 06:01:00,
2013-03-09 22:11:00,52.0,44.0,30.31,South,176,0.0,1.0,73,-99.99,,,-99.99,,2013-03-10 06:11:00,
2013-03-09 22:21:00,52.0,44.0,30.31,West,272,0.0,3.0,73,-99.99,,,-99.99,,2013-03-10 06:21:00,
2013-03-09 22:32:00,52.0,44.0,30.31,West,263,0.0,2.0,75,-99.99,,,-99.99,,2013-03-10 06:32:00,
2013-03-09 22:41:00,52.0,44.0,30.31,West,263,0.0,2.0,75,-99.99,,,-99.99,,2013-03-10 06:41:00,
2013-03-09 22:51:00,52.0,45.0,30.30,South,191,0.0,2.0,76,-99.99,,,-99.99,,2013-03-10 06:51:00,
2013-03-09 23:01:00,51.0,44.0,30.31,SSE,163,1.0,2.0,77,-99.99,,,-99.99,,2013-03-10 07:01:00,
2013-03-09 23:11:00,51.0,44.0,30.31,SSE,163,1.0,2.0,77,-99.99,,,-99.99,,2013-03-10 07:11:00,
2013-03-09 23:21:00,52.0,45.0,30.30,SSE,160,1.0,2.0,78,-99.99,,,-99.99,,2013-03-10 07:21:00,
2013-03-09 23:31:00,52.0,46.0,30.31,SE,140,0.0,0.0,79,-99.99,,,-99.99,,2013-03-10 07:31:00,
2013-03-09 23:41:00,51.0,45.0,30.31,SE,141,1.0,1.0,79,-99.99,,,-99.99,,2013-03-10 07:41:00,
2013-03-09 23:52:00,51.0,45.0,30.31,SE,141,1.0,1.0,79,-99.99,,,-99.99,,2013-03-10 07:52:00,